Regional Weather Roundup
Issued by NWS Nashville, TN

Home | Current Version | Previous Version | Text Only | Print | Product List | Glossary On
Versions: 1 2 3 4 5 6 7 8 9 10 11 12 13 14 15 16 17 18 19 20 21 22 23 24 25 26 27 28 29 30 31 32 33 34 35 36 37 38 39 40 41 42 43 44 45 46 47 48 49 50
000
ASUS44 KOHX 290810
RWROHX
MIDDLE TENNESSEE HOURLY WEATHER ROUNDUP
NATIONAL WEATHER SERVICE NASHVILLE TN
300 AM CDT SUN MAR 29 2015

NOTE: "FAIR" INDICATES FEW OR NO CLOUDS BELOW 12,000 FEET WITH
NO SIGNIFICANT WEATHER AND/OR OBSTRUCTIONS TO VISIBILITY.

* THESE REPORTS ARE NOT UNDER NWS QUALITY CONTROL AND MAY NOT
  REPORT WEATHER SUCH AS PRECIPITATION AND FOG.


TNZ005>011-023>034-057-059-062>066-078-080-290900
...NORTHERN MIDDLE TENNESSEE...

CITY           SKY/WX    TMP DP  RH WIND       PRES   REMARKS
CLARKSVILLE    CLEAR     29  18  63 CALM      30.33F
CROSSVILLE       N/A     25  15  66 CALM      30.30S
GALLATIN         N/A     24  20  85 CALM      30.36S
LIVINGSTON       N/A     32  13  45 E3        30.32R
NASHVILLE      CLEAR     28  21  75 S3        30.34F
PORTLAND       CLEAR     21  18  86 CALM      30.33F
SMYRNA         CLEAR     24  22  92 CALM      30.36F
SPARTA         CLEAR     21  19  93 CALM      30.33R
$$
TNZ056-058-060-061-075>077-079-093>097-290900
...SOUTHERN MIDDLE TENNESSEE...

CITY           SKY/WX    TMP DP  RH WIND       PRES   REMARKS
COLUMBIA       CLEAR     25  25 100 CALM      30.31F
LEWISBURG      CLEAR     22  18  85 CALM      30.33F
MCMINNVILLE    CLEAR     23  19  86 NE3       30.33S
MURFREESBORO   CLEAR     27  22  81 CALM      30.35S
SHELBYVILLE    CLEAR     27  19  74 E3        30.34F
TULLAHOMA      CLEAR     27  16  63 CALM      30.32S
WINCHESTER     CLEAR     21  19  93 CALM      30.33S
$$


...KEY TO REMARKS...
VSB - VISIBILITY IN MILES
WCI - WIND CHILL INDEX
HX  - HEAT INDEX



USA.gov is the U.S. government's official web portal to all federal, state and local government web resources and services.